Weather History for Valentine, NE

Change the Weather History Date:

Sunday, June 16, 2013

  Actual Average Record
Temperature  
Mean Temperature 62 °F 68 °F  
Max Temperature 73 °F 81 °F 100 °F (1987)
Min Temperature 51 °F 54 °F 38 °F (1945)
Degree Days  
Heating Degree Days 3 2  
Month to date heating degree days 54 46  
Since 1 June heating degree days 54 46  
Since 1 July heating degree days 6942 6988  
Cooling Degree Days 0 4  
Month to date cooling degree days 33 48  
Year to date cooling degree days 72 82  
Since 1 June cooling degree days 33 48  
Growing Degree Days 12 (Base 50)    
Moisture  
Dew Point 55 °F    
Average Humidity 71    
Maximum Humidity 93    
Minimum Humidity 49    
Precipitation  
Precipitation 0.14 in 0.12 in 2.64 in (1892)
Month to date precipitation 0.71 1.94  
Year to date precipitation 10.11 9.10  
Snow  
Snow 0.00 in 0.00 in 0.00 in ()
Month to date snowfall 0.0 0.0  
Since 1 June snowfall 0.0 0.0  
Since 1 July snowfall 54.0 33.3  
Snow Depth 0.00 in    
Sea Level Pressure  
Sea Level Pressure 30.01 in    
Wind  
Wind Speed 6 mph (ESE)    
Max Wind Speed 24 mph    
Max Gust Speed 29 mph    
Visibility 10 miles    
Events Rain , Thunderstorm    
T = Trace of Precipitation, MM = Missing Value Source: NWS Daily Summary

Daily Weather History Graph

Daily Weather History Graph

Search for Another Location

Airport:

Trip Planner

Search our weather history database for the weather conditions in past years. The results will help you decide how hot, cold, wet, or windy it might be!

Date:

Astronomy

Jun. 16, 2013 Rise Set
Actual Time 6:03 AM CDT 9:23 PM CDT
Civil Twilight 5:27 AM CDT 9:58 PM CDT
Nautical Twilight 4:42 AM CDT 10:44 PM CDT
Astronomical Twilight 3:45 AM CDT 11:40 PM CDT
Moon 1:51 PM CDT (6/16) 1:19 AM CDT (6/16)
Length of Visible Light 16h 30m
Length of Day
15h 20m
Waxing Crescent, 50% of the Moon is Illuminated
Jun 16
Waxing Crescent
Jun 16
First Quarter
Jun 23
Full
Jun 29
Last Quarter
Jul 8
New

Hourly Weather History & Observations

Time (CDT) Temp. Dew Point Humidity Pressure Visibility Wind Dir Wind Speed Gust Speed Precip Events Conditions
12:52 AM 60.1 °F 51.1 °F 72% 29.99 in 10.0 mi Calm Calm - N/A   Clear
1:52 AM 55.0 °F 51.1 °F 86% 29.99 in 10.0 mi Calm Calm - N/A   Clear
2:52 AM 55.0 °F 51.1 °F 86% 29.99 in 10.0 mi Calm Calm - N/A   Clear
3:52 AM 59.0 °F 51.1 °F 75% 29.99 in 10.0 mi SSE 5.8 mph - N/A   Clear
4:52 AM 57.0 °F 50.0 °F 77% 29.99 in 10.0 mi Calm Calm - N/A   Clear
5:52 AM 55.0 °F 52.0 °F 89% 30.01 in 10.0 mi Calm Calm - N/A   Clear
6:52 AM 60.1 °F 55.0 °F 83% 30.00 in 10.0 mi Calm Calm - N/A   Clear
7:52 AM 60.1 °F 55.9 °F 86% 29.99 in 10.0 mi Calm Calm - N/A   Clear
8:52 AM 66.9 °F 57.9 °F 73% 30.01 in 10.0 mi North 8.1 mph - N/A   Clear
9:52 AM 66.9 °F 59.0 °F 76% 30.02 in 10.0 mi WSW 3.5 mph - N/A Thunderstorm Mostly Cloudy
10:09 AM 66.2 °F 59.0 °F 78% 30.04 in 10.0 mi SSE 6.9 mph - N/A   Overcast
10:52 AM 64.9 °F 62.1 °F 90% 29.97 in 10.0 mi East 12.7 mph - 0.02 in Rain Light Rain
11:07 AM 64.4 °F 62.6 °F 94% 30.06 in 10.0 mi SW 9.2 mph - 0.00 in Thunderstorm Mostly Cloudy
11:52 AM 64.0 °F 62.1 °F 93% 30.02 in 8.0 mi East 6.9 mph - 0.02 in Rain , Thunderstorm Light Rain
12:00 PM 64.4 °F 60.8 °F 88% 30.07 in 7.0 mi NNW 4.6 mph - 0.01 in Rain Light Rain
12:13 PM 64.4 °F 62.6 °F 94% 30.05 in 10.0 mi SE 8.1 mph - 0.01 in Thunderstorm Overcast
12:52 PM 64.9 °F 60.1 °F 84% 30.07 in 10.0 mi NE 8.1 mph - 0.08 in Thunderstorm Overcast
1:43 PM 68.0 °F 59.0 °F 73% 30.07 in 10.0 mi East 17.3 mph 23.0 mph 0.02 in   Overcast
1:52 PM 66.9 °F 59.0 °F 76% 30.08 in 10.0 mi NE 9.2 mph - 0.02 in Thunderstorm Overcast
2:20 PM 68.0 °F 55.4 °F 64% 30.07 in 10.0 mi ENE 15.0 mph 24.2 mph N/A   Mostly Cloudy
2:52 PM 69.1 °F 55.0 °F 61% 30.04 in 10.0 mi ENE 11.5 mph - N/A   Clear
3:52 PM 69.1 °F 51.1 °F 53% 29.98 in 10.0 mi SE 12.7 mph 26.5 mph N/A   Partly Cloudy
4:19 PM 69.8 °F 50.0 °F 49% 30.02 in 10.0 mi ESE 10.4 mph 23.0 mph N/A   Scattered Clouds
4:40 PM 68.0 °F 53.6 °F 60% 30.02 in 10.0 mi North 19.6 mph 25.3 mph N/A   Partly Cloudy
4:52 PM 69.1 °F 50.0 °F 51% 30.00 in 10.0 mi SSE 11.5 mph 23.0 mph N/A   Partly Cloudy
5:52 PM 68.0 °F 52.0 °F 56% 29.95 in 10.0 mi ESE 12.7 mph - N/A   Clear
6:52 PM 70.0 °F 54.0 °F 57% 29.95 in 10.0 mi ESE 9.2 mph - N/A   Clear
7:52 PM 73.0 °F 54.0 °F 51% 29.98 in 10.0 mi Calm Calm - N/A   Clear
8:52 PM 68.0 °F 52.0 °F 56% 30.01 in 10.0 mi South 10.4 mph - N/A   Clear
9:52 PM 60.1 °F 54.0 °F 80% 30.03 in 10.0 mi SSW 5.8 mph - N/A   Clear
10:52 PM 57.9 °F 53.1 °F 84% 30.03 in 10.0 mi WNW 3.5 mph - N/A   Clear
11:52 PM 55.9 °F 53.1 °F 90% 30.04 in 10.0 mi NW 4.6 mph - N/A   Clear